Wind_Gust
19 18 18 17 16 16 16 17 17 17 16 15 15 15 15 15 15 16 15 15 15 15 14 13 12 12 12 11 11 9 9 4 2 2 2 16 12 12 9 12 11 14 10 6 5 6 6 4 4 2 7 5 9 5 9 7 7 10 10 12 11 4 6 11 10 12 8 21 16 10 13 21 14 9 12 16 16 16 15 17 11 20 15 12 9 11 11 9
20 19 18 17 16 17 18 18 17 17 17 16 15 15 15 15 16 15 15 15 14 14 13 12 12 11 12 10 10 8 7 4 4 5 19 11 9 11 12 11 15 15 10 4 6 4 7 6 6 6 6 4 5 7 4 7 8 13 9 13 11 10 11 14 14 11 12 18 14 13 9 17 15 13 12 17 9 12 20 14 13 16 15 15 13 10 10 6
21 19 19 18 17 17 18 19 19 16 16 16 16 15 15 16 15 15 15 15 14 13 13 12 11 10 10 9 9 7 4 3 4 9 17 16 17 13 14 16 18 12 8 4 6 8 7 9 8 8 5 6 5 7 6 7 10 6 15 15 15 14 9 11 10 6 6 15 19 16 12 17 12 10 7 13 12 8 17 21 12 18 16 13 9 8 7 6
20 20 19 18 18 18 19 20 19 17 16 16 16 16 16 15 15 14 14 14 14 14 12 12 11 9 9 9 8 8 3 4 5 9 10 11 15 16 16 21 12 11 6 4 7 6 6 8 13 9 6 7 7 5 14 9 18 9 17 15 14 17 18 11 13 9 14 17 19 17 15 16 11 12 16 17 16 7 6 8 23 21 20 16 11 10 8 7
21 20 19 19 19 19 19 19 20 19 15 16 15 16 15 15 15 14 14 14 14 14 12 11 10 8 7 7 9 6 5 13 7 5 12 13 16 16 18 14 12 9 9 8 5 6 10 12 8 5 10 9 6 12 10 15 14 15 16 21 22 18 17 14 18 15 17 15 17 16 17 16 13 13 19 17 21 15 15 10 9 17 15 16 14 13 8 6
20 20 20 20 20 20 20 20 19 19 17 14 15 14 14 14 14 13 13 14 13 12 11 10 9 8 7 8 6 3 4 21 9 7 9 17 14 15 15 11 10 10 8 4 5 7 8 7 14 10 8 10 8 18 12 18 12 21 23 14 22 11 8 7 18 19 18 20 18 14 13 16 10 12 5 9 14 9 12 13 12 12 12 10 8 9 7 5
20 20 20 20 20 20 21 21 20 18 17 15 13 13 12 12 13 14 14 13 12 11 11 9 7 8 6 6 3 4 7 9 3 14 14 15 16 14 15 10 10 8 6 7 6 11 8 12 9 8 13 18 13 25 11 14 10 21 22 19 13 14 15 18 11 15 20 18 15 17 15 20 19 17 5 16 11 13 14 14 13 11 10 9 10 6 7 7
21 21 20 21 20 20 21 22 22 21 18 15 12 11 11 11 12 14 14 14 12 12 10 8 7 6 6 3 4 8 5 7 12 7 15 18 15 14 14 10 8 6 4 8 7 7 5 11 12 8 19 19 13 19 13 19 14 24 18 13 13 14 15 17 15 22 20 18 16 17 18 13 17 19 13 14 16 16 13 13 13 12 11 7 7 7 6 6
21 21 21 20 20 20 21 22 23 21 19 17 15 11 11 11 12 13 15 14 13 11 10 8 6 7 6 4 7 10 7 8 12 12 14 13 14 13 10 10 11 7 6 10 10 9 4 6 6 8 13 15 18 19 13 22 14 9 18 16 21 13 16 15 15 16 17 15 19 23 18 15 20 20 16 12 15 16 15 12 12 11 11 10 8 8 8 7
21 21 21 21 20 21 21 22 22 21 20 19 18 15 10 12 11 12 14 14 12 10 9 7 10 10 5 5 7 15 6 8 6 14 17 17 13 12 9 15 11 10 8 11 17 10 6 10 18 16 22 19 20 18 8 12 15 10 16 22 24 18 16 14 14 11 8 14 20 25 19 22 9 8 9 5 14 15 15 14 10 11 11 10 9 10 10 12
22 21 21 21 21 21 22 21 22 21 21 21 19 17 16 14 13 12 13 12 10 10 9 8 10 8 4 3 11 9 7 9 7 10 15 14 14 11 15 12 10 9 12 15 12 18 12 8 21 14 12 16 13 12 7 15 16 14 20 15 17 19 16 13 11 11 14 11 13 28 18 6 8 8 19 16 14 15 18 16 14 11 9 9 9 9 8 9
22 21 21 21 22 22 22 21 21 22 22 20 20 20 18 13 12 12 12 11 10 10 9 9 12 6 4 9 7 7 9 7 10 11 13 16 12 19 14 15 14 16 17 12 15 19 12 13 11 7 15 6 14 9 13 15 13 12 21 16 9 15 15 10 15 12 7 16 12 18 16 9 11 12 14 18 14 15 17 16 14 12 10 11 9 8 8 9
22 21 21 22 22 22 21 20 20 21 21 21 21 21 19 14 12 12 11 8 10 10 10 11 9 5 4 9 7 13 8 8 8 11 6 9 9 11 14 11 14 16 15 12 11 15 14 17 12 19 15 14 19 12 12 10 8 9 10 14 9 9 10 8 10 10 8 18 20 12 10 8 8 11 11 13 18 15 16 15 13 9 11 11 9 9 7 6
23 23 22 22 22 22 20 20 20 19 20 22 22 21 19 15 11 11 11 11 11 9 11 13 8 4 5 6 13 8 5 6 10 7 8 9 5 15 12 12 16 12 12 12 13 14 11 17 19 13 8 18 13 4 14 10 10 13 4 11 10 12 10 11 17 9 12 17 16 7 12 8 7 8 9 9 16 19 17 13 12 9 8 8 7 9 10 10
24 24 25 23 22 21 21 21 21 21 22 25 25 25 22 16 10 12 12 6 9 10 12 8 5 5 11 15 10 12 9 7 8 10 11 8 9 12 13 12 13 16 18 16 10 9 15 19 16 11 8 5 19 14 8 9 8 8 13 6 6 9 7 8 7 16 19 16 9 16 7 11 9 11 10 9 14 15 16 13 12 9 9 9 9 8 7 9
26 25 25 23 21 20 20 20 22 23 23 25 27 29 24 16 10 12 17 12 15 13 12 3 4 8 6 9 6 12 7 5 7 9 8 11 7 10 12 11 9 10 10 9 11 13 9 14 15 9 11 9 15 15 10 11 7 9 10 3 9 5 8 6 10 18 21 27 9 9 12 4 5 11 11 10 13 13 15 12 11 12 13 14 16 11 10 11
27 26 25 23 21 21 21 21 24 24 25 27 29 28 21 15 12 12 15 14 13 8 3 7 3 5 7 11 8 8 9 8 7 5 7 9 10 8 9 10 7 14 11 11 12 12 12 17 7 11 12 13 9 14 16 12 5 6 7 9 9 10 7 12 9 12 14 19 10 4 15 13 7 15 13 10 12 11 13 11 10 11 11 13 13 10 11 9
27 26 24 24 23 26 21 21 21 25 25 27 22 18 24 17 17 20 13 6 9 6 8 6 6 9 12 12 7 6 4 11 11 10 5 5 6 6 6 10 6 10 11 11 11 11 9 15 11 8 7 6 4 8 12 8 18 12 6 9 5 3 10 10 19 13 16 13 13 5 6 10 7 12 13 13 9 11 13 13 12 12 11 11 10 8 8 10
26 25 26 24 27 27 21 22 21 23 25 28 19 20 21 17 12 4 10 6 6 13 14 12 13 10 10 6 10 11 7 8 6 6 8 8 5 6 7 6 9 9 8 11 9 9 11 13 13 14 11 9 10 11 14 14 14 15 14 11 10 12 8 11 16 10 22 12 11 11 14 9 8 10 10 9 10 10 10 8 8 9 10 8 9 10 11 12
26 26 27 26 28 28 25 21 21 23 23 19 22 19 19 24 22 16 15 10 8 9 7 12 7 8 7 10 9 10 5 9 8 7 7 7 7 10 9 9 9 16 10 10 5 6 6 16 8 5 11 13 11 13 13 14 16 13 7 10 11 8 7 7 6 7 15 13 6 8 9 12 12 14 12 11 10 7 11 13 9 9 10 10 10 12 13 12
27 27 27 28 26 29 27 24 23 20 16 4 8 19 14 12 10 16 17 20 8 7 8 13 14 11 9 6 7 9 7 6 6 6 7 3 7 6 11 10 12 13 7 4 7 6 15 15 9 8 9 8 8 9 12 13 10 11 10 8 5 6 7 7 9 11 7 11 5 6 12 8 10 8 10 7 13 11 14 15 12 13 13 13 12 13 16 14
27 27 28 27 27 28 28 26 22 20 9 4 14 14 8 6 8 11 7 17 17 10 8 11 7 8 9 9 7 7 9 8 7 8 11 4 8 11 9 14 8 8 7 7 12 19 17 10 12 11 7 8 10 10 11 12 8 8 11 8 7 7 6 7 7 8 7 13 5 8 13 6 6 6 5 9 12 10 12 17 22 18 16 15 14 17 16 9
28 28 26 28 29 28 28 26 25 15 9 13 14 8 7 10 10 8 6 5 12 10 8 7 4 6 7 8 7 11 6 9 5 9 12 8 8 7 5 10 10 6 9 7 13 8 13 10 10 11 7 13 10 9 14 13 12 11 9 10 6 7 8 9 8 8 10 11 13 6 14 4 7 2 4 7 9 9 8 14 21 26 24 19 20 20 19 13
28 26 26 26 28 29 28 26 24 7 12 6 5 9 11 7 7 8 9 8 7 14 4 5 2 4 6 6 7 6 5 4 4 6 8 8 5 5 14 6 9 11 8 7 13 16 10 5 6 14 16 13 11 11 14 14 11 6 6 6 5 3 6 13 9 8 12 16 16 16 13 7 7 5 6 4 4 6 8 7 12 15 16 13 13 11 17 21
27 26 25 27 27 29 28 23 9 8 9 4 5 10 9 9 8 3 12 12 10 11 7 4 9 4 5 6 4 7 3 4 4 6 7 5 11 10 5 6 13 6 10 9 11 14 7 4 6 15 11 11 12 13 7 11 11 12 8 6 4 7 11 8 11 14 12 6 7 18 11 6 8 7 10 13 9 7 5 10 13 15 12 11 14 16 12 12
26 26 26 24 28 29 24 6 4 14 6 6 7 13 10 9 9 6 18 10 5 12 16 6 7 7 6 6 7 5 7 7 5 6 4 4 5 7 9 10 8 6 6 6 11 10 5 7 10 9 12 10 10 9 3 8 7 7 7 8 6 9 12 16 9 15 7 12 18 7 11 7 9 6 6 7 7 12 11 7 13 12 12 11 14 13 14 15
26 26 26 24 23 26 9 4 7 8 6 10 15 15 14 9 7 7 10 15 10 6 4 11 5 11 11 4 4 7 11 11 12 8 5 7 4 6 9 6 8 6 6 8 17 11 7 10 11 10 12 12 10 11 5 10 11 6 9 9 10 14 17 13 10 10 9 4 8 9 11 14 5 10 6 7 5 10 11 13 12 11 11 13 14 13 12 14
26 23 22 23 22 12 2 6 11 6 6 10 12 14 13 12 7 12 19 10 15 5 5 10 6 6 4 5 8 8 9 5 9 5 2 8 3 8 15 4 8 6 6 14 11 10 3 8 7 9 9 12 7 5 7 4 5 9 7 9 8 14 12 11 10 8 6 14 5 7 5 17 5 11 7 8 5 6 11 12 12 12 11 13 13 14 13 13
25 23 23 21 22 9 3 2 2 4 7 10 11 13 15 7 15 16 13 14 10 11 10 6 11 5 8 8 7 3 4 5 8 5 9 6 12 7 10 2 11 11 10 12 12 4 6 4 4 9 9 6 7 7 4 8 9 7 8 13 12 13 12 8 10 10 5 13 5 8 7 16 10 11 9 5 5 8 11 10 10 9 9 10 12 13 13 10
26 22 21 20 11 3 3 2 6 8 9 9 11 13 8 9 12 13 8 6 6 5 5 9 7 6 5 5 5 9 5 7 5 9 12 8 14 11 9 5 10 11 11 13 9 8 6 8 8 11 4 3 3 3 7 5 4 8 10 13 13 16 10 9 13 9 12 12 10 10 4 14 9 9 10 10 12 12 8 9 9 8 8 9 11 12 11 11
27 22 17 10 4 3 4 7 9 5 9 10 14 9 10 19 14 11 7 13 6 12 7 5 6 7 5 7 4 7 3 5 8 7 7 14 15 12 11 10 16 18 13 14 9 14 9 10 10 12 6 5 4 6 6 6 5 9 12 8 12 13 16 16 13 13 14 7 9 6 7 7 13 8 11 14 8 10 14 9 10 9 9 9 7 10 10 9
28 24 16 7 8 6 6 4 6 8 11 11 10 11 14 9 15 7 7 8 11 9 4 6 4 8 4 1 6 8 4 6 5 9 7 7 10 14 9 12 7 11 12 6 6 10 6 5 8 12 7 10 6 10 13 13 18 19 12 18 17 8 16 10 17 12 4 7 2 2 8 13 9 11 10 10 11 10 10 12 13 11 10 8 9 9 10 9
30 25 20 8 7 3 9 9 8 9 8 9 11 11 14 12 8 9 6 6 8 8 5 4 3 3 4 8 6 4 4 6 5 8 8 7 12 6 3 9 5 11 12 6 6 9 9 11 10 11 10 6 9 13 10 14 14 13 10 8 12 10 9 5 7 6 10 11 7 4 5 12 9 12 7 10 11 12 12 11 9 10 10 10 11 9 9 7
29 22 12 6 12 12 9 5 7 8 8 9 12 13 16 13 6 9 3 7 4 5 4 4 3 6 7 6 2 2 7 4 3 6 8 6 11 6 10 9 5 8 13 4 10 6 3 13 11 8 9 9 8 9 6 7 3 3 6 11 10 15 12 9 8 8 6 11 9 8 9 10 5 11 5 8 9 9 7 9 7 7 9 9 9 9 9 8
30 15 6 5 5 13 17 14 5 3 9 11 19 15 9 9 7 6 6 5 7 3 2 4 4 6 6 7 6 3 5 8 6 7 12 7 4 5 3 8 7 11 5 13 6 8 2 11 13 6 5 5 8 2 6 6 8 4 8 10 13 5 13 6 11 7 6 6 10 13 10 5 12 6 9 7 8 5 4 3 4 7 7 7 10 8 8 8
15 8 3 8 4 7 7 9 5 4 8 15 14 9 5 12 6 7 5 6 2 4 5 8 10 10 3 4 5 5 7 7 6 10 7 6 5 5 2 3 6 3 7 8 9 5 9 5 5 13 6 8 6 5 7 8 11 9 11 5 7 9 16 13 6 4 7 15 7 5 12 11 15 11 7 8 7 6 5 5 5 6 7 7 8 9 8 9
17 16 7 8 6 6 7 7 8 8 14 16 13 5 11 9 12 7 9 4 3 7 9 10 9 5 2 3 4 8 6 9 6 9 4 4 10 6 4 4 4 3 7 13 5 7 11 9 8 6 3 4 3 4 6 6 9 11 11 11 6 6 11 12 6 9 11 11 12 7 6 9 10 11 9 7 5 9 6 6 5 7 5 8 9 9 10 11
13 8 5 7 10 9 7 6 9 13 11 10 4 9 5 5 6 7 6 5 6 8 9 6 8 6 4 4 4 4 8 10 9 8 4 4 9 4 3 4 5 5 3 3 12 5 9 8 8 3 6 11 9 8 11 7 7 12 10 6 12 8 10 12 13 7 5 7 10 8 4 8 11 12 6 6 8 9 9 6 5 7 7 8 9 10 10 10
3 6 6 7 10 6 5 9 15 9 9 10 5 4 7 11 7 6 9 7 4 9 6 4 7 8 7 5 4 4 5 7 4 5 8 6 9 4 2 6 2 8 7 7 10 6 9 10 11 8 3 6 8 12 6 13 13 6 6 12 4 15 5 7 7 10 15 4 7 9 8 10 15 13 9 10 10 11 9 5 7 9 9 9 9 9 10 10
11 7 4 7 8 9 5 10 9 12 10 4 8 8 6 7 10 12 9 8 6 9 4 4 2 6 7 3 4 4 5 4 7 5 7 5 7 5 4 5 3 6 7 8 7 3 3 6 6 10 8 7 9 10 3 6 4 12 17 9 12 10 4 11 6 4 7 11 8 7 8 14 14 12 8 11 11 12 11 10 8 10 10 9 9 11 10 9
6 8 8 8 14 10 10 17 12 5 7 7 4 6 5 8 11 8 8 8 5 4 9 7 10 5 7 7 7 2 6 6 8 9 5 2 6 4 5 5 5 4 4 8 11 7 8 7 6 8 12 7 9 8 7 8 8 9 10 6 8 5 4 3 8 9 7 8 8 7 14 17 17 7 10 10 11 7 9 9 9 10 9 9 11 10 10 9
5 5 7 7 14 8 11 6 7 3 8 4 6 8 15 7 7 10 5 3 6 4 5 12 2 7 4 5 3 5 5 4 5 6 6 5 2 8 5 6 6 2 7 5 3 3 9 10 15 6 5 7 3 7 4 11 10 7 12 4 8 7 13 11 7 9 7 5 7 7 12 13 10 6 7 10 9 10 8 8 9 9 8 9 10 8 7 8
10 7 11 10 10 8 13 6 6 6 4 9 8 10 8 11 7 10 5 5 4 5 6 8 4 6 3 4 2 5 4 6 3 4 3 2 3 10 7 6 7 10 10 6 4 5 10 11 9 6 10 10 8 6 5 8 9 9 8 5 6 5 5 12 10 10 10 5 6 5 7 15 9 5 8 9 10 9 6 8 10 8 8 9 9 8 9 8
5 7 14 9 8 10 11 7 6 5 9 9 4 13 9 12 6 7 4 4 6 4 5 5 5 4 5 2 5 2 3 7 4 4 4 3 4 5 7 7 8 5 7 6 9 6 9 7 14 6 8 14 13 14 10 9 12 7 4 3 3 6 7 4 10 5 9 6 8 11 9 10 9 8 7 4 4 5 7 10 8 9 9 8 9 9 8 7
9 9 8 18 15 12 5 11 8 3 4 5 7 13 18 8 8 8 6 4 3 5 6 4 4 6 6 2 5 3 3 6 5 5 6 3 6 4 8 11 8 6 3 7 9 7 11 6 11 9 8 5 6 6 9 8 7 5 2 3 2 5 6 3 2 6 6 3 5 6 12 17 16 10 7 4 5 6 9 8 6 7 8 9 9 9 9 6
8 9 13 12 18 12 10 3 7 4 6 4 6 14 3 8 12 5 7 5 3 6 8 9 6 9 5 5 5 4 3 2 6 5 5 4 5 5 5 7 4 5 5 10 6 10 8 5 8 12 15 15 14 11 9 8 5 3 3 2 3 5 5 10 11 9 7 7 8 13 11 8 12 7 6 9 6 6 9 7 7 8 8 9 8 10 9 9
5 6 7 9 15 14 5 8 6 8 7 4 7 5 7 7 9 11 5 6 3 8 8 4 5 8 3 7 3 2 2 1 5 4 2 6 3 5 7 6 6 7 8 8 5 12 8 6 2 8 7 12 11 7 8 8 5 5 4 5 4 5 7 7 5 5 10 13 11 11 7 5 14 9 10 11 11 9 10 10 11 10 12 11 9 7 10 9
6 6 5 5 6 8 7 8 9 9 8 4 10 5 6 6 7 8 10 3 2 6 9 8 7 2 12 10 8 6 2 2 3 4 3 4 5 5 4 7 4 8 6 4 5 8 8 5 4 3 5 5 7 8 7 5 6 9 10 7 8 7 6 6 8 7 11 6 15 8 9 7 12 10 11 12 11 11 11 13 14 12 8 6 5 6 8 9
5 7 4 7 8 6 6 8 6 4 9 5 7 5 6 6 7 7 7 9 7 3 6 5 5 6 9 6 8 7 5 5 6 5 8 4 3 4 5 5 4 7 4 4 6 4 11 2 3 2 3 6 5 5 5 6 3 3 6 9 8 11 14 12 7 7 15 9 11 9 11 16 18 13 12 14 11 12 9 6 5 5 8 8 6 7 9 10
8 5 11 11 6 5 5 4 3 5 8 7 5 5 5 7 8 13 8 6 5 4 2 5 5 3 7 8 8 9 12 12 14 10 6 5 2 4 6 9 4 3 4 4 4 3 12 9 4 3 6 6 8 8 4 6 8 10 7 3 2 4 3 3 3 3 3 10 9 3 6 17 18 15 16 11 5 5 5 8 11 10 8 9 9 9 9 10
6 4 5 8 9 9 6 4 4 4 6 12 10 9 8 6 9 8 11 6 9 9 6 7 10 6 3 6 5 8 10 13 10 10 13 13 13 14 10 10 9 6 2 4 2 3 8 5 5 5 5 10 6 9 11 4 4 5 9 7 4 5 7 9 12 13 11 13 4 3 7 18 19 9 7 7 6 6 10 11 9 9 8 9 10 11 10 10
4 4 5 7 6 5 6 4 4 5 3 5 10 8 10 11 11 9 14 9 4 9 13 11 9 12 3 5 10 14 12 12 13 11 14 10 6 6 5 6 15 13 9 8 2 7 6 10 5 3 3 8 11 5 7 4 7 12 15 17 16 10 4 3 6 5 12 13 11 6 17 14 13 4 7 6 7 10 8 10 11 10 9 11 12 13 13 11
Wind_Speed
15 15 14 13 13 13 13 13 14 14 13 12 12 12 12 12 12 12 12 12 11 11 11 11 9 8 7 6 6 4 5 2 1 0 0 8 8 6 7 9 9 9 8 4 4 4 1 2 3 1 4 2 1 1 1 3 1 3 3 4 3 1 2 4 3 5 1 6 4 6 2 7 4 1 1 3 8 4 4 6 4 6 5 4 3 4 6 4
16 15 14 14 13 13 13 13 13 14 13 13 12 12 12 12 12 12 12 11 11 11 11 9 9 7 5 4 3 3 2 2 1 2 9 5 6 9 8 9 11 9 7 2 4 3 5 2 4 4 3 1 1 1 0 1 3 5 2 5 2 1 1 3 2 4 4 2 5 2 3 1 2 5 1 4 1 1 4 3 3 5 6 6 7 5 6 4
17 16 15 15 14 13 13 13 13 13 13 13 13 12 12 13 12 11 12 12 12 11 10 9 7 5 4 2 1 2 1 0 0 3 6 9 11 11 10 9 9 10 4 1 3 3 1 5 4 3 1 3 2 2 2 1 2 1 4 4 1 2 3 3 2 3 2 5 6 6 1 4 4 1 1 3 4 0 4 5 5 6 9 8 6 5 5 4
16 16 15 15 14 14 13 13 13 13 13 13 13 13 13 12 12 11 11 11 12 11 10 8 5 3 2 2 1 1 1 1 1 2 5 5 9 10 8 9 8 6 3 1 3 2 4 5 3 3 1 3 1 2 4 2 4 3 5 3 4 5 2 5 4 1 6 7 5 4 2 6 1 2 1 6 5 3 4 4 4 11 12 10 7 6 5 4
17 16 15 14 14 13 13 13 13 12 12 13 13 13 12 12 11 11 11 11 12 11 8 6 3 2 3 2 1 3 1 4 0 2 6 2 6 10 8 8 8 4 2 3 3 3 4 3 3 2 2 2 1 3 3 5 4 3 1 2 3 2 2 2 2 5 8 7 6 5 7 3 2 3 5 6 3 5 4 5 3 5 10 9 9 7 4 3
16 15 14 14 13 13 12 12 12 12 12 12 12 11 11 11 11 11 11 11 10 9 8 5 3 3 4 5 3 1 1 6 2 2 1 6 9 8 8 8 7 4 3 2 1 1 1 3 5 1 2 3 4 8 2 8 5 4 4 4 4 3 1 1 2 7 9 6 7 5 3 4 2 3 2 1 1 2 1 3 6 5 5 5 5 5 3 3
16 15 14 13 13 12 13 12 11 11 11 11 10 11 10 10 11 11 11 9 8 7 6 3 3 2 4 4 1 2 2 1 1 7 7 8 10 11 11 8 7 4 2 0 1 0 3 3 2 2 3 5 2 11 5 5 1 10 7 4 4 3 2 1 5 7 5 10 5 3 4 5 5 3 2 2 3 2 6 6 8 6 5 5 5 4 5 4
16 15 15 14 13 13 12 11 10 9 9 9 9 9 9 9 10 11 11 9 7 6 5 3 4 4 4 1 0 2 1 0 5 3 9 14 11 11 10 5 5 3 2 2 0 1 2 3 4 3 6 5 4 9 4 8 1 6 2 7 1 4 1 4 6 6 7 7 7 6 5 3 2 2 2 2 2 3 6 6 7 6 4 3 3 3 2 2
17 16 16 15 14 14 14 14 13 10 8 8 8 9 9 9 9 9 10 9 6 5 4 2 4 4 1 1 2 4 2 2 3 7 10 9 8 7 6 2 3 4 1 0 3 2 0 3 2 1 4 6 1 12 6 12 1 2 5 3 2 3 4 7 7 6 8 5 7 8 5 3 4 3 3 1 1 3 5 6 5 5 4 3 3 3 2 2
17 17 17 17 15 16 15 15 15 13 10 8 9 9 8 10 8 8 9 8 7 4 2 2 7 7 3 1 2 7 3 6 3 8 11 12 8 7 2 3 4 4 1 3 1 1 2 3 3 2 9 6 4 4 1 2 6 4 4 2 5 4 7 2 7 4 4 4 4 8 3 3 2 2 1 1 1 3 6 5 3 4 4 2 2 2 2 3
18 17 17 17 17 17 17 16 15 14 12 10 11 10 11 11 10 8 7 6 5 3 1 4 6 4 0 1 5 4 1 3 2 4 10 10 9 6 5 6 7 5 5 1 3 6 6 3 4 7 3 2 3 2 2 3 5 7 7 8 9 5 6 4 7 5 7 2 2 10 6 1 5 0 2 3 1 2 5 3 3 1 1 1 2 2 2 3
17 17 17 17 18 17 17 16 15 14 14 12 13 13 11 11 10 8 6 3 2 1 3 5 7 0 1 3 4 1 3 3 3 5 6 9 5 7 6 7 8 7 7 4 4 6 3 3 4 1 3 2 3 1 2 2 6 3 5 6 4 5 4 2 4 3 1 1 4 5 5 2 6 2 3 3 3 3 4 3 1 0 1 2 2 2 1 2
17 17 17 18 17 18 17 16 15 15 14 14 14 13 12 11 9 7 4 2 3 3 5 6 5 1 0 3 2 6 1 1 2 8 4 3 3 1 3 6 8 8 7 4 1 0 4 2 6 12 2 5 3 1 2 6 4 6 6 3 4 3 2 2 1 1 4 0 6 3 2 3 3 2 1 2 5 4 4 1 0 1 2 3 3 2 2 1
17 17 17 18 18 17 16 15 16 15 16 14 15 14 11 10 6 4 4 3 3 5 6 8 1 1 1 1 6 3 1 2 5 4 4 4 3 2 1 4 6 5 3 0 3 2 4 4 9 6 2 4 3 0 7 3 6 4 1 5 2 3 2 2 0 1 2 1 6 1 0 1 3 1 1 1 4 5 4 1 0 1 2 3 3 3 3 3
18 18 18 18 17 16 16 16 15 16 18 16 16 16 10 6 1 3 5 4 3 8 8 4 2 1 3 3 5 7 4 2 1 3 6 5 4 3 3 2 5 5 5 3 1 0 3 6 6 5 2 2 5 7 2 3 4 3 3 2 2 2 2 3 1 4 3 0 3 4 2 2 4 4 0 1 3 4 3 2 1 1 2 3 3 3 3 3
18 18 18 18 15 16 16 15 17 19 16 16 15 12 8 5 8 7 5 4 8 10 4 1 1 3 2 2 0 4 3 2 4 1 2 3 4 1 5 4 1 4 1 1 1 4 3 7 7 1 3 3 9 7 4 3 2 3 3 1 1 1 1 2 2 4 5 4 2 1 0 1 2 3 1 1 4 3 3 3 2 3 3 3 2 3 3 2
18 17 17 14 17 18 16 15 18 19 18 19 14 5 9 11 10 9 9 8 4 3 0 1 0 1 2 4 2 4 3 2 4 1 2 1 3 3 3 3 1 5 4 4 3 6 7 6 3 2 6 6 4 5 7 2 1 3 2 1 2 1 0 1 4 2 4 8 3 2 1 2 3 2 1 0 3 3 4 4 4 3 3 3 3 3 3 2
17 16 14 16 18 18 16 15 16 20 17 17 10 1 6 10 13 11 6 4 1 1 1 1 1 3 2 6 1 2 1 6 6 4 2 1 3 2 2 4 1 5 5 3 5 5 4 2 4 4 2 2 1 3 5 4 7 5 1 1 1 0 2 2 1 2 5 1 4 1 1 2 4 1 1 1 1 3 4 4 4 3 3 3 3 3 2 1
17 15 16 19 19 18 16 17 16 19 16 8 11 10 7 7 1 1 3 1 1 4 3 3 5 1 2 3 6 7 2 5 3 3 4 2 0 3 3 3 4 4 1 3 2 3 3 4 5 6 2 1 5 6 7 2 6 9 7 5 3 3 3 3 3 1 7 3 4 2 1 1 1 1 1 1 0 3 4 2 3 4 4 4 4 4 3 3
17 17 17 20 20 19 19 16 15 16 15 3 3 1 3 8 8 4 7 5 4 3 3 4 1 2 4 4 4 6 3 6 4 3 3 1 1 5 4 3 5 8 5 2 2 2 1 3 2 3 6 7 5 5 2 3 6 7 3 4 4 4 4 2 0 2 5 5 3 1 2 1 1 3 3 2 1 2 4 6 5 4 5 5 5 5 5 5
19 17 18 18 18 20 19 19 17 13 8 1 3 8 4 1 2 4 5 9 4 2 2 3 4 3 3 2 3 5 2 3 1 2 3 1 3 1 3 4 6 7 3 0 3 2 6 6 1 4 5 6 5 4 5 6 3 8 6 5 2 0 0 2 1 1 1 3 1 1 5 3 1 1 3 1 1 7 7 7 7 7 5 5 6 7 7 5
20 19 19 19 18 20 18 18 18 13 3 1 7 4 2 2 1 1 1 5 6 1 3 5 1 2 4 3 3 4 4 2 3 5 4 2 4 5 3 7 4 4 3 1 4 6 6 3 6 6 2 2 3 6 5 6 6 4 4 3 4 1 0 3 3 5 4 2 0 1 4 2 2 1 2 4 6 4 4 5 7 6 7 7 6 8 6 3
21 20 20 19 21 19 19 17 15 11 3 6 4 3 1 2 1 2 2 2 4 2 1 2 2 4 3 4 1 2 2 1 1 4 5 4 2 3 1 5 4 1 4 4 6 2 5 3 3 3 3 2 5 3 6 9 7 6 3 2 2 3 2 0 2 3 6 2 3 2 5 1 4 1 3 5 5 5 4 5 8 6 8 10 9 5 2 3
21 21 20 20 20 20 19 18 14 4 4 1 3 4 1 2 1 1 1 1 2 7 0 1 0 1 3 0 1 2 1 1 1 4 3 3 1 1 6 3 5 5 4 4 7 8 4 0 0 4 5 2 7 5 7 6 3 1 3 2 2 1 2 4 4 1 2 5 4 4 6 2 4 1 2 2 2 3 5 4 5 6 7 6 5 5 3 5
21 21 19 20 20 20 20 15 5 2 1 0 0 1 2 1 2 2 3 2 1 2 3 1 2 1 2 1 2 1 1 0 2 2 3 2 0 2 1 1 4 1 0 1 4 7 3 2 0 2 3 5 6 7 2 4 2 3 3 3 3 3 5 2 4 5 5 2 2 2 2 1 4 4 6 7 5 4 2 3 7 6 5 4 7 9 4 4
21 20 20 18 20 23 16 2 0 0 0 1 0 2 1 1 2 3 6 3 0 3 5 1 0 0 1 1 3 1 2 1 1 2 0 1 2 3 1 3 2 2 3 1 4 2 1 3 4 2 7 6 5 4 2 3 3 3 1 4 2 6 7 11 5 5 2 3 2 2 2 1 4 2 2 4 5 8 6 4 7 6 5 4 7 7 5 6
20 19 19 18 18 20 2 1 0 0 1 2 2 3 2 2 2 4 1 5 2 0 0 3 2 1 1 1 1 2 2 2 5 1 2 3 1 1 4 1 2 2 2 1 4 1 2 5 6 6 7 6 5 5 1 4 4 1 1 4 6 10 10 5 6 4 2 1 0 5 3 1 1 3 2 4 4 6 8 9 8 7 6 7 7 6 5 5
19 19 17 17 16 9 0 1 3 1 2 2 4 4 3 1 4 3 5 1 0 1 1 3 0 1 0 2 5 0 2 1 2 1 1 4 1 3 6 2 2 1 0 4 4 4 2 3 3 5 5 6 2 2 1 3 1 1 4 6 5 8 8 7 6 5 1 4 0 2 3 2 1 4 3 2 1 3 6 8 8 8 7 6 7 8 7 5
19 18 16 14 14 3 0 0 1 0 1 3 4 4 3 3 6 6 4 1 1 0 1 1 2 1 4 1 3 1 0 1 1 2 5 1 6 2 3 0 5 5 2 5 5 0 2 2 1 5 3 1 3 2 0 5 1 0 4 9 7 7 6 5 5 5 1 3 1 2 1 1 4 5 5 2 0 4 6 6 7 6 6 5 6 7 7 5
19 16 15 13 8 1 1 0 3 2 2 4 4 3 2 3 2 1 2 1 1 0 0 2 2 2 2 2 2 5 2 3 1 4 5 2 7 7 3 3 3 4 4 6 5 4 1 5 5 4 0 1 1 0 0 0 1 4 3 7 7 8 4 4 7 3 3 1 2 2 2 2 2 3 3 0 1 2 3 4 4 4 4 6 6 6 6 5
20 17 13 7 0 0 0 2 2 1 3 4 2 3 3 8 3 4 0 2 1 3 1 1 1 4 1 0 1 4 1 1 3 3 2 6 6 7 3 2 5 6 5 7 3 8 4 2 1 0 2 1 1 1 1 2 2 5 1 3 5 3 6 4 5 5 2 2 4 2 1 1 2 3 4 7 4 3 3 4 5 5 6 5 3 4 5 4
22 19 12 2 3 1 2 1 1 2 3 3 3 5 4 3 4 0 1 3 1 2 1 1 1 1 2 1 4 4 1 2 3 4 3 2 2 4 4 5 0 3 3 1 1 4 2 3 4 6 2 3 2 3 3 4 5 7 5 7 5 2 4 1 6 1 0 1 0 0 2 2 2 4 4 6 6 5 5 6 6 3 6 5 6 5 4 3
23 19 13 3 3 1 5 2 2 4 4 3 4 4 2 4 0 2 1 2 2 1 0 1 1 1 0 3 1 2 1 2 2 3 2 2 3 3 1 0 2 2 3 2 0 4 3 4 5 7 4 2 1 1 3 3 6 6 3 3 5 1 2 0 2 1 4 4 3 1 1 1 3 6 2 4 6 5 5 6 5 4 5 6 6 6 6 4
23 16 4 2 5 5 4 2 3 5 3 4 3 3 7 3 1 5 0 2 1 1 2 1 1 3 4 2 0 1 3 1 1 1 2 1 4 1 3 2 0 2 6 2 1 2 1 4 4 4 1 2 3 2 2 2 1 0 3 2 4 6 3 2 2 1 2 4 3 4 1 2 2 3 1 5 6 6 5 4 4 4 4 5 5 5 5 5
23 6 1 0 1 6 8 4 2 1 1 3 9 4 3 3 1 2 2 2 2 1 0 2 1 2 2 2 3 1 1 0 3 1 6 2 1 1 1 4 3 6 1 5 1 2 0 3 5 3 3 2 3 0 2 2 3 0 2 4 5 0 6 2 2 1 0 0 1 0 2 2 3 2 6 3 4 4 3 2 2 4 4 4 6 5 4 4
10 2 1 1 2 2 1 2 2 1 1 5 4 2 1 4 0 2 0 2 0 0 0 2 5 2 1 1 1 2 5 2 2 2 3 2 1 1 1 1 1 0 1 1 3 1 2 1 1 7 2 4 2 1 1 2 1 2 2 1 1 3 9 5 1 1 2 4 1 0 5 4 7 4 2 4 3 4 3 3 3 4 5 5 5 5 5 5
8 7 2 4 3 3 1 2 1 3 6 6 5 1 3 2 4 4 4 1 1 3 2 2 2 1 0 0 1 4 3 3 1 2 0 0 0 1 1 1 3 0 3 5 1 2 3 2 4 3 1 0 0 1 3 3 3 3 2 2 1 2 4 3 1 3 4 2 4 2 2 4 3 2 4 4 3 6 4 4 3 5 4 4 5 5 6 6
5 2 1 2 4 5 1 1 1 6 4 3 1 4 0 0 1 3 1 1 0 2 2 2 0 2 1 1 1 2 4 3 4 2 1 1 1 2 2 1 1 2 2 1 2 1 3 2 2 1 2 7 4 1 2 1 3 1 2 3 1 1 1 4 4 0 0 1 3 3 1 4 5 5 2 3 4 5 6 3 3 5 5 5 5 6 7 5
0 2 1 3 3 4 1 2 7 3 2 2 1 1 2 4 2 2 5 4 1 2 1 1 2 0 3 1 1 0 1 1 0 1 2 1 2 2 0 3 0 2 2 3 3 1 3 2 3 2 1 3 3 5 1 6 4 3 2 3 1 4 2 0 1 2 4 0 1 3 2 3 6 5 3 5 5 6 5 3 5 6 6 5 5 5 6 6
4 1 1 0 4 5 1 2 2 5 4 1 2 2 1 2 3 5 4 3 1 2 1 1 0 2 1 1 2 1 2 2 2 0 1 1 0 1 1 1 1 1 4 1 3 0 0 1 1 3 3 2 1 2 0 1 2 3 4 2 2 3 1 3 1 1 1 4 3 1 2 5 6 6 4 5 6 7 6 6 5 6 6 6 5 6 5 5
1 2 1 3 8 5 2 8 5 2 2 1 1 1 0 1 1 2 4 4 1 1 2 3 5 1 3 2 1 1 0 1 0 1 1 0 2 0 2 3 1 0 0 2 5 1 2 1 1 2 4 2 3 3 2 3 2 1 3 2 3 0 1 0 3 1 2 2 2 3 5 7 8 2 5 6 7 4 6 5 5 6 6 6 6 5 6 5
1 1 1 3 8 3 3 2 2 0 2 2 0 2 1 3 1 3 2 1 2 0 2 5 0 3 1 1 1 0 1 1 0 0 1 1 1 2 1 3 4 0 1 0 1 1 2 3 6 2 1 1 2 1 1 1 3 2 2 0 3 2 5 4 1 2 1 0 3 2 0 5 2 3 4 6 5 7 5 5 6 6 5 6 6 4 4 5
4 1 5 4 6 2 5 3 2 1 0 2 4 2 1 1 2 2 1 1 0 1 1 2 1 1 1 0 0 1 1 0 1 0 1 1 2 5 4 2 4 4 5 0 1 1 5 3 3 3 5 6 5 2 2 2 2 0 3 2 1 0 1 4 3 4 4 0 1 0 1 5 3 1 4 5 6 6 4 4 6 5 5 5 4 5 5 4
1 2 5 2 4 3 4 1 1 1 3 5 2 3 2 1 1 3 0 1 1 0 1 1 1 0 1 1 2 1 2 1 1 0 0 1 0 1 1 3 1 0 2 2 2 2 1 1 6 2 2 5 4 5 2 2 3 1 0 0 1 2 4 2 5 1 1 3 4 4 3 2 3 2 3 1 0 2 4 4 3 5 6 5 5 5 5 4
1 1 2 8 7 5 1 3 4 1 1 1 2 3 5 1 4 3 1 2 1 1 2 0 1 2 2 1 2 1 1 1 0 1 0 0 0 2 5 7 2 0 1 3 2 1 2 2 3 2 3 1 1 1 2 3 4 1 0 0 0 2 4 1 0 2 1 1 3 2 4 9 8 5 1 0 2 2 3 4 3 4 5 6 5 5 5 4
3 0 5 4 7 5 4 1 3 2 1 1 1 1 0 2 2 3 4 0 1 0 1 4 1 4 2 1 1 1 1 1 1 1 1 0 1 1 2 6 2 1 2 7 3 5 2 1 3 5 6 6 5 4 3 2 2 0 1 1 2 3 2 4 5 3 2 2 4 7 5 4 7 4 2 4 2 4 5 4 4 5 5 6 5 6 6 5
1 1 1 2 6 6 1 4 2 2 1 1 1 0 1 0 3 3 1 0 0 1 1 1 1 2 1 3 1 1 0 0 2 2 0 1 1 2 5 1 1 4 6 4 3 5 3 1 0 4 3 5 6 2 0 1 1 2 1 2 1 4 4 3 2 2 4 5 5 4 3 2 8 5 6 6 6 5 6 6 7 6 7 7 6 4 5 5
1 1 1 2 1 1 1 2 5 2 1 0 1 0 0 1 3 1 4 1 1 1 2 2 1 1 6 4 4 2 0 1 1 1 0 1 1 2 1 3 2 5 2 1 2 2 3 1 1 1 2 3 2 4 1 0 0 2 4 2 4 5 4 4 4 4 7 2 8 3 5 4 7 6 7 8 7 7 7 8 6 6 5 4 4 5 6 6
2 0 1 0 0 2 2 1 1 1 2 1 0 2 2 2 1 1 1 4 3 1 2 1 3 4 3 1 3 2 2 1 1 1 3 2 1 1 0 2 1 4 2 1 3 1 4 0 1 1 2 2 3 2 1 4 1 0 3 6 4 7 9 7 3 3 8 6 5 3 3 10 10 8 7 9 7 5 5 2 3 3 5 5 4 5 6 7
1 0 0 4 3 0 2 2 0 2 3 3 2 2 0 1 3 5 2 2 1 1 0 1 3 1 4 5 4 3 6 6 4 2 3 3 0 0 2 4 2 1 2 1 1 2 2 2 2 1 1 1 3 5 2 1 3 4 5 0 1 2 1 1 0 1 1 6 6 3 3 10 9 9 10 5 1 1 3 5 7 6 5 4 5 6 6 7
1 0 1 1 0 2 1 2 1 1 1 4 4 2 2 1 1 0 4 2 2 1 1 3 4 4 1 2 1 4 5 9 7 3 9 8 6 7 4 4 4 2 1 1 0 1 1 0 2 2 0 3 1 5 4 3 1 2 6 5 2 4 3 4 4 7 6 8 1 1 3 8 9 1 4 4 3 3 6 6 5 6 5 4 5 7 7 7
0 2 1 1 1 1 1 0 1 1 1 1 0 1 1 2 2 1 2 1 2 3 3 2 4 6 1 2 6 8 8 8 9 7 8 6 1 3 1 2 9 6 4 3 0 2 2 5 2 0 0 2 3 3 4 2 3 6 7 8 10 6 1 1 3 3 7 6 4 2 9 7 5 2 1 3 3 5 5 6 7 7 6 5 7 8 8 7
Wind_Direction
340 337 334 332 325 320 315 313 310 308 306 305 301 297 294 294 290 289 285 283 280 278 279 278 279 280 281 295 311 352 356 113 41 7 252 237 196 178 133 121 139 143 134 96 82 102 52 88 76 43 65 97 295 58 261 56 46 56 59 116 65 188 91 199 173 186 219 148 168 170 195 131 121 84 127 70 45 66 57 60 61 64 61 58 76 82 92 76
339 336 334 329 325 320 316 312 308 306 306 302 300 294 292 289 289 288 288 286 284 278 273 273 272 275 285 297 316 10 63 125 240 265 236 215 193 157 157 151 147 155 113 67 143 159 113 57 112 100 100 37 277 95 63 348 63 75 111 77 143 217 264 163 189 211 141 206 145 133 99 71 116 129 223 79 56 45 64 56 93 91 80 73 70 77 80 66
339 336 332 329 326 319 315 310 307 302 301 301 298 297 292 288 289 288 288 285 280 275 268 261 259 262 275 275 300 68 240 47 349 283 261 234 198 168 169 148 145 154 141 150 200 140 125 175 175 95 350 115 360 153 99 94 75 10 108 53 58 231 249 242 267 160 120 124 132 130 161 91 129 67 75 132 147 294 176 151 137 138 140 130 106 93 86 78
338 334 332 327 323 319 312 308 304 300 298 297 294 294 294 293 293 290 282 275 270 266 259 257 255 245 236 248 189 170 133 47 40 254 264 241 198 174 156 148 147 142 98 59 167 118 107 85 64 98 71 67 351 57 70 334 82 312 67 164 167 204 211 239 224 182 138 136 132 113 97 106 122 85 88 136 108 277 262 203 208 166 158 143 131 125 118 117
336 334 331 326 320 316 312 304 299 297 293 290 292 293 296 296 293 288 279 272 267 268 274 267 254 225 206 136 137 178 56 58 286 227 248 153 145 163 147 125 127 136 126 144 95 52 89 116 106 42 96 113 59 56 76 60 89 64 189 217 173 140 219 257 196 156 144 130 116 119 120 163 101 55 120 146 148 221 213 198 169 163 148 143 143 147 128 144
335 332 329 324 319 314 308 304 296 289 285 285 286 292 292 293 290 284 278 273 279 279 274 263 240 214 141 154 169 194 86 92 235 251 148 138 109 120 116 115 112 110 110 53 126 82 87 31 72 13 24 79 178 109 112 116 163 93 289 279 226 194 159 252 111 144 135 130 130 137 142 96 66 92 114 67 241 293 41 115 115 123 126 120 116 127 143 158
334 331 328 323 319 308 306 307 299 284 283 281 280 287 283 287 286 283 282 290 288 281 269 255 219 197 136 147 198 92 103 278 297 266 71 110 110 97 87 79 83 74 75 63 15 49 55 84 92 151 99 79 72 112 145 137 177 132 210 214 230 136 228 76 109 130 126 130 134 120 100 76 120 103 345 41 342 41 79 90 100 101 97 110 131 160 168 179
333 331 328 324 319 311 310 306 299 288 274 284 294 286 283 281 282 285 291 295 289 281 275 230 193 176 150 71 89 7 20 25 252 271 81 87 84 91 92 72 91 79 89 200 154 46 128 105 141 112 65 117 185 116 164 100 123 136 178 202 142 106 64 83 107 106 103 90 103 92 80 88 82 133 69 336 356 68 83 92 98 101 105 112 134 161 175 210
332 331 330 328 324 319 322 318 314 304 288 274 278 290 289 286 280 286 292 290 295 289 285 192 147 156 151 70 116 71 4 250 215 90 100 84 112 127 134 121 147 135 171 145 191 216 100 217 79 122 162 115 154 118 158 131 65 244 187 148 92 87 92 105 80 88 101 99 112 87 61 60 118 104 47 292 332 93 101 85 101 112 123 149 168 169 183 208
333 332 332 331 328 327 327 322 317 314 313 300 300 292 281 288 284 279 285 289 293 301 287 179 143 164 145 93 42 74 256 206 132 133 121 133 124 111 109 144 135 126 132 261 94 131 204 222 127 142 102 59 98 99 177 343 182 175 141 85 100 122 109 61 113 97 89 100 139 114 115 148 227 57 269 277 181 120 98 101 96 125 156 170 191 203 203 194
333 333 332 331 331 330 327 322 317 316 316 314 307 303 301 298 295 282 270 275 283 306 155 161 155 156 47 84 95 114 265 67 90 124 136 125 115 127 208 155 168 152 181 249 207 188 218 139 160 131 38 160 108 12 12 271 115 86 108 70 55 54 57 89 82 109 113 70 76 125 132 132 316 84 229 171 180 106 115 96 106 109 188 265 262 232 206 206
332 332 331 332 332 330 326 319 317 315 315 312 313 306 301 298 293 279 265 253 271 284 151 168 166 34 66 69 107 55 213 212 124 132 139 138 142 204 197 175 171 180 156 210 229 225 141 143 82 77 158 124 81 120 29 357 74 72 90 90 52 67 67 40 108 172 76 94 121 112 86 341 359 347 319 128 103 91 102 93 77 79 308 304 300 288 294 256
334 333 332 333 331 329 323 320 316 312 311 317 311 306 305 303 285 267 258 257 211 166 154 150 159 47 66 45 235 232 306 204 136 119 100 83 99 110 176 187 203 203 194 198 257 354 137 107 98 82 127 95 149 125 150 60 72 80 35 82 57 25 44 248 2 87 53 127 151 99 355 292 304 336 55 113 108 94 85 94 35 328 323 316 304 293 292 299
335 334 334 334 331 324 319 318 318 311 315 322 316 313 313 301 282 257 188 137 106 134 139 142 125 74 87 235 268 245 228 128 102 100 131 133 137 279 223 240 229 237 234 129 52 158 104 90 92 112 101 88 113 343 76 2 15 101 271 55 65 97 257 276 126 184 72 220 162 18 343 286 281 310 41 92 112 130 141 153 258 303 304 305 303 307 305 311
337 337 334 334 327 321 320 319 318 317 320 332 324 325 326 311 320 125 126 112 104 124 128 102 28 62 39 279 260 291 205 107 8 268 175 136 145 113 273 303 262 244 50 73 316 343 123 94 67 40 44 330 83 79 28 27 8 15 62 313 353 97 272 296 292 147 138 125 233 38 63 247 268 269 294 124 109 116 149 190 234 277 281 288 297 304 310 306
337 336 335 331 323 322 321 320 326 322 327 331 333 332 11 64 82 103 133 135 124 120 122 18 341 105 100 21 276 344 51 28 336 293 254 145 134 217 179 203 303 52 65 306 144 92 29 87 68 164 117 40 68 100 58 58 344 7 91 237 272 60 266 356 212 156 150 133 212 53 231 324 307 254 267 115 131 134 155 221 256 265 276 284 292 291 287 342
335 334 331 323 333 329 322 320 327 328 342 336 337 355 69 98 104 99 96 106 112 129 272 135 316 82 69 247 304 21 302 278 281 18 5 170 147 176 125 60 330 77 118 83 55 67 7 60 303 43 34 102 134 99 99 20 334 286 42 155 203 151 74 244 300 187 131 136 209 15 133 235 265 273 220 47 141 154 177 212 237 252 258 271 284 283 287 37
333 333 330 335 334 330 323 330 330 335 345 339 348 224 97 117 127 109 82 53 124 187 252 213 99 48 315 360 18 301 2 288 338 286 194 199 146 161 89 89 333 75 71 58 4 63 345 50 32 183 29 17 51 74 101 210 179 211 242 83 264 130 178 228 175 247 105 48 116 32 44 333 319 146 187 251 130 178 219 208 240 253 254 259 259 269 279 110
335 331 333 340 336 334 334 335 333 335 346 330 60 65 114 134 120 71 72 10 36 360 24 328 26 80 169 256 286 282 252 243 253 40 319 41 22 86 54 93 85 97 32 73 293 75 358 65 27 47 151 147 217 169 170 205 147 175 174 175 137 153 230 229 241 279 139 103 73 32 243 314 342 164 229 287 15 214 254 280 274 271 273 264 255 254 249 187
336 336 336 340 339 336 337 335 332 336 347 20 359 57 10 16 4 341 338 38 99 184 206 232 112 229 285 295 302 274 264 25 37 324 332 329 353 2 50 67 34 63 76 130 353 52 94 96 132 184 215 226 242 203 143 162 149 125 86 114 176 171 285 285 240 291 137 88 47 146 89 44 311 233 234 243 338 269 275 265 257 254 258 263 265 256 252 237
339 338 340 337 334 336 335 333 331 334 344 74 27 57 50 297 55 335 317 285 251 220 231 256 195 199 242 296 291 350 27 326 59 299 324 313 67 89 324 22 22 49 4 157 144 294 72 68 310 229 243 235 230 151 109 72 56 127 114 120 149 110 301 328 312 351 354 150 348 91 83 10 303 253 234 267 196 237 233 248 261 254 245 256 257 263 257 259
341 340 338 338 333 334 332 332 327 336 313 22 65 82 119 132 237 205 104 332 326 298 291 283 224 305 316 250 255 127 79 44 348 317 303 48 320 85 310 82 75 109 331 26 19 19 46 73 282 290 243 57 71 128 135 131 100 43 116 135 121 238 210 4 14 18 357 86 288 37 83 316 307 256 237 209 218 249 247 234 246 256 263 256 252 250 259 291
343 338 339 335 336 331 334 325 326 325 18 35 52 81 81 297 293 313 95 127 279 283 323 344 360 349 326 299 300 88 51 22 277 330 330 29 4 54 151 59 60 61 27 39 124 71 30 313 307 337 111 122 60 59 92 76 72 94 71 77 223 232 117 12 308 7 20 81 184 141 95 300 320 303 223 236 223 257 259 247 252 237 250 252 251 261 255 221
341 341 337 335 329 334 326 327 306 357 38 122 111 115 149 333 108 101 112 258 294 312 267 251 87 195 257 40 259 88 91 282 76 329 322 65 74 195 71 113 53 50 14 23 101 107 171 272 235 42 31 85 87 41 58 55 26 1 118 123 160 211 225 150 203 83 34 33 89 85 44 340 355 352 317 292 290 279 279 297 268 256 242 257 292 282 219 210
339 339 337 333 330 329 324 320 42 322 226 88 70 219 108 321 303 187 113 345 14 296 256 337 137 239 246 351 1 8 234 27 236 246 271 97 231 41 95 149 95 1 216 274 73 63 5 282 301 68 58 50 75 49 56 125 33 318 257 176 213 187 122 107 121 98 27 14 324 108 32 303 295 293 253 281 333 294 295 311 276 262 261 264 263 259 258 234
338 337 338 333 331 328 310 15 358 5 30 102 130 112 92 305 238 156 94 72 291 264 346 221 283 10 147 326 19 123 59 53 258 262 299 330 176 125 68 30 101 182 235 29 109 142 205 347 58 78 87 57 60 99 214 113 126 80 307 206 197 132 125 131 151 84 85 141 265 73 125 271 325 308 297 313 326 295 303 289 278 289 277 256 252 256 246 251
336 335 335 335 334 333 356 230 266 199 38 315 303 348 11 300 146 109 32 360 42 279 109 249 44 271 52 294 92 50 58 266 304 35 44 341 339 22 100 288 43 40 130 140 38 359 353 346 21 26 56 62 46 43 227 130 100 40 255 114 119 114 124 135 97 99 177 238 35 48 86 135 330 295 266 299 309 295 306 292 286 284 277 265 261 261 255 254
334 333 332 333 332 358 140 335 358 70 207 254 352 340 325 282 112 50 78 69 263 318 335 310 228 281 95 314 55 63 204 260 37 267 97 315 137 11 87 175 126 164 262 72 110 255 99 339 21 19 42 57 30 226 249 163 125 190 228 164 146 141 149 130 98 104 119 102 39 329 2 70 267 266 316 331 332 322 292 277 281 287 286 277 277 274 268 259
334 332 331 331 322 349 255 106 109 176 257 307 324 334 322 70 93 100 108 104 256 240 199 66 263 89 334 341 31 2 259 9 134 258 322 7 42 146 66 228 140 135 97 121 154 231 296 156 271 121 101 40 257 304 259 153 56 208 129 79 74 69 60 82 103 103 13 62 265 257 66 111 291 282 341 330 249 287 268 279 281 264 269 278 274 276 275 277
331 331 329 327 328 111 319 357 211 241 318 320 335 332 46 49 33 42 11 206 349 333 249 253 16 281 33 65 325 358 66 332 5 319 31 82 328 36 64 140 117 60 39 13 83 200 293 316 162 70 87 237 205 248 196 217 193 139 79 81 47 42 35 38 55 84 63 16 265 246 354 127 295 270 231 102 222 207 272 304 285 288 277 262 264 266 277 277
328 328 325 339 326 230 111 349 262 304 308 330 347 51 67 40 110 99 112 229 20 256 337 352 274 4 50 68 13 324 65 336 345 33 4 6 1 33 28 54 36 51 35 9 10 332 357 2 59 307 294 347 102 208 102 34 79 126 68 108 68 10 16 30 351 32 94 273 267 284 209 105 184 299 292 240 275 237 222 256 279 294 295 298 271 259 258 261
327 323 321 281 239 41 161 228 260 336 326 346 57 58 70 255 13 93 221 326 94 282 94 276 317 107 57 12 87 348 324 357 5 44 58 28 34 35 350 138 69 52 352 341 283 345 13 3 295 321 257 22 3 54 306 17 46 71 72 37 100 254 35 255 10 346 100 111 109 82 137 36 213 215 244 287 260 261 214 225 244 270 298 305 306 300 280 242
324 322 317 205 175 254 245 259 354 343 350 46 69 47 65 96 218 267 312 312 256 158 318 161 283 41 166 68 346 312 295 93 322 53 114 16 89 9 218 57 170 142 182 250 8 24 284 286 5 331 24 58 98 122 313 12 340 34 78 109 82 55 42 266 282 250 317 297 262 350 300 189 261 303 237 252 274 251 252 245 244 254 259 282 290 302 304 290
321 323 338 192 198 234 261 306 332 327 17 41 76 29 48 76 222 192 336 227 240 321 317 46 8 43 43 136 263 353 38 344 67 326 58 39 50 31 326 332 165 27 78 107 133 172 31 351 327 3 352 331 66 134 173 159 83 132 152 125 181 144 158 215 211 196 211 201 283 285 34 234 112 241 250 260 272 287 274 256 245 241 248 263 274 279 283 294
316 317 172 171 249 254 249 265 257 125 80 64 53 83 129 230 228 193 242 292 272 250 234 345 70 57 349 18 318 334 144 40 31 56 25 71 356 142 6 314 345 112 104 96 269 66 169 205 252 255 246 3 48 238 124 90 47 333 167 100 69 295 152 121 208 148 213 148 3 308 216 178 183 256 284 299 308 303 335 320 359 321 328 337 333 326 308 300
336 331 158 344 351 285 130 214 163 76 83 58 76 46 142 187 34 181 88 196 333 350 260 31 73 64 288 322 331 75 340 116 332 80 359 61 199 93 242 217 313 88 125 127 198 134 20 78 300 321 15 66 340 281 343 103 18 266 54 87 240 150 99 102 70 34 83 53 254 82 321 305 304 316 289 340 3 308 340 326 353 333 325 341 318 305 302 297
15 333 39 330 333 320 160 180 140 77 59 93 93 253 206 281 197 163 250 78 266 126 52 134 315 110 234 309 279 339 319 43 15 88 245 321 20 231 296 289 171 54 196 134 279 181 142 233 300 56 26 49 215 86 63 14 135 71 62 235 138 126 129 121 180 344 57 151 256 41 239 299 30 255 317 348 348 292 302 297 312 310 318 316 287 287 286 291
337 355 229 344 305 326 97 222 62 46 78 82 135 223 245 48 195 196 280 33 350 43 99 99 275 92 261 105 349 331 321 94 291 51 164 351 168 204 102 234 280 116 261 250 123 278 102 44 297 304 221 277 359 122 343 338 6 181 185 201 81 306 326 326 86 3 276 286 289 317 322 264 176 242 339 291 252 272 272 305 329 297 292 273 287 293 294 291
24 63 42 291 333 354 20 26 66 70 60 55 251 41 238 234 245 199 219 134 94 114 82 225 137 303 131 114 229 267 260 118 301 89 97 283 93 184 276 168 326 125 11 148 62 179 55 142 295 291 190 326 2 52 28 298 329 20 57 32 340 96 148 54 195 177 114 212 49 292 36 244 211 220 193 246 245 244 267 304 262 254 256 261 264 274 281 295
17 40 333 264 339 349 9 63 52 46 66 122 216 220 219 276 247 256 241 166 272 107 240 149 206 116 48 181 142 129 342 90 114 206 103 256 81 285 221 337 175 326 50 67 127 286 95 100 159 278 307 26 351 1 191 165 341 340 33 347 7 30 230 104 43 65 194 169 175 202 318 277 262 213 175 228 238 238 217 234 251 258 260 253 248 253 269 272
328 100 267 291 346 333 57 41 50 54 101 271 147 236 338 235 330 288 269 231 152 267 172 173 162 117 187 111 317 330 46 44 27 106 182 293 154 7 249 192 184 357 4 19 57 68 86 36 154 315 19 350 232 242 217 184 167 161 146 145 163 66 320 154 272 36 62 93 212 123 255 265 271 178 208 226 246 241 228 209 245 256 251 252 256 253 244 266
44 26 277 318 344 25 76 54 26 263 98 171 237 171 286 294 357 278 336 14 115 132 56 107 18 122 122 61 149 195 112 53 359 85 263 153 232 137 311 119 160 202 120 206 145 239 148 144 92 77 164 135 258 267 213 194 131 161 121 193 140 114 102 97 149 275 24 7 104 151 51 278 241 214 212 236 250 245 235 188 233 251 249 251 254 260 273 243
44 220 261 334 334 73 63 56 294 32 193 243 293 293 237 318 207 285 17 318 305 85 42 50 195 96 243 143 177 93 146 100 166 280 222 225 247 213 231 127 152 56 82 308 22 271 95 67 59 304 315 298 311 289 130 98 132 36 35 71 99 294 165 169 174 184 134 182 79 6 240 249 284 251 253 250 248 252 263 204 219 250 268 269 270 284 283 291
196 264 319 300 15 85 80 191 46 314 288 320 30 281 262 220 52 337 279 287 136 111 145 154 8 75 143 105 112 113 212 97 244 94 8 209 65 235 22 118 162 359 93 231 126 247 75 290 114 68 1 336 342 345 5 335 59 96 191 358 108 74 65 144 107 51 104 211 169 118 244 294 271 320 302 302 320 223 241 254 204 260 281 280 287 284 281 284
263 274 233 300 347 60 128 181 136 176 285 320 325 352 343 344 206 209 208 285 77 182 103 41 187 148 53 107 85 110 17 122 165 300 127 211 260 331 5 57 15 166 173 211 162 86 79 178 102 123 144 186 284 313 271 275 237 249 157 61 57 110 132 21 278 12 97 282 119 151 254 253 275 309 329 318 347 298 279 259 264 215 244 274 285 282 286 286
24 83 306 334 9 27 68 50 101 133 92 356 33 287 151 324 324 315 177 243 155 96 80 136 357 82 83 59 45 33 36 345 106 237 115 258 289 330 272 335 75 155 101 97 69 72 134 122 96 154 149 188 208 214 246 119 52 71 252 175 217 61 82 95 104 88 227 189 196 236 190 287 309 295 278 262 290 241 265 288 273 264 258 255 252 264 266 268
184 81 357 333 339 40 69 17 44 45 77 162 112 313 326 258 263 331 123 302 328 152 51 51 179 129 313 83 162 100 266 295 354 99 241 179 258 240 309 26 1 51 112 93 81 84 71 72 200 139 190 199 194 206 199 188 186 225 140 244 158 139 139 118 146 243 174 84 312 261 204 178 263 270 258 260 265 263 261 259 267 263 254 243 247 258 281 279
48 256 115 201 132 290 36 338 41 32 333 74 247 157 279 348 7 37 321 46 348 325 116 344 57 84 173 169 142 128 281 53 8 184 343 239 13 342 42 359 51 300 339 55 4 121 135 136 249 113 260 265 245 237 286 328 265 193 201 173 196 192 143 164 231 187 139 181 214 248 165 199 254 228 230 224 218 224 228 236 231 245 265 262 252 257 264 266
122 233 158 255 128 248 167 283 355 82 31 105 177 37 18 63 23 261 187 316 17 331 71 165 275 246 178 152 119 159 170 87 305 297 179 181 174 106 66 334 282 11 84 45 25 138 90 66 187 139 287 336 23 346 272 194 227 235 221 217 209 162 205 206 221 205 184 211 218 234 201 241 249 249 220 230 221 223 253 265 295 285 249 250 238 241 248 257
326 75 282 358 78 88 301 356 71 50 80 322 88 337 130 11 355 335 332 157 330 302 359 111 238 227 161 140 125 137 210 176 175 192 228 130 125 128 209 189 169 355 40 120 67 334 105 268 109 80 61 314 320 350 42 19 160 266 275 331 175 203 231 228 329 256 266 297 258 217 302 288 264 219 239 235 171 293 293 284 254 245 257 253 236 240 246 248
297 323 153 102 100 307 338 15 41 88 65 347 71 301 37 326 19 304 263 235 184 220 208 220 196 100 79 121 169 238 219 188 181 206 178 157 178 219 144 269 147 142 67 69 41 359 62 276 56 66 50 310 334 18 326 11 103 225 282 281 217 158 227 224 188 210 158 219 93 102 301 265 272 246 263 289 291 258 248 259 267 258 236 231 230 242 243 245
28 287 21 105 99 327 39 355 342 54 22 236 131 267 154 262 267 2 327 277 265 255 234 196 189 107 48 131 229 226 219 183 203 213 182 183 154 162 164 182 158 154 175 156 222 146 146 127 160 149 114 263 261 15 337 9 23 346 286 238 204 213 201 285 271 235 216 142 124 184 234 222 242 325 217 262 204 245 260 253 257 270 252 214 225 233 236 241